COSMOS 2135

Satellite information

Favourite Embed

Satellite Type and Status

PAYLOADIN ORBIT

Key statistics

Satellite COSMOS 2135 at a glance.

Uptime

12550

Days in orbit

Revolutions

≈ 13.8

Per day

Orbit

LEO

Low Earth Orbit

Inclination

82.8

Latest

Satellite identification and parameters

Extended collection of information and parameters for COSMOS 2135.

Object identification

Identified? True

Debris? False

Object name: COSMOS 2135

International designator: 1991-013A

Object number (NORAD): 21130

Object ID (CCSDS): 21130

Country: COMMONWEALTH OF INDEPENDENT STATES (CIS)

Current information (Y/N): Y

RCS size: LARGE

Orbital parameters

Period: 104.442 minutes

Inclination: 82.8287 deg

SMA: 7346.424 km

Apoapsis: 1017.646 km

Periapsis: 918.931 km

RAAN: 119.4588 deg

Eccentricy: 0.0067186

Argument of periapsis: 93.1699 deg

Mean anomaly: 267.7149 deg

Mean motion: 13.78760392 rev/day

Mean motion (dot): 0.0000006 rev/day2

B* drag term: 0.00004313 1/REarth

Two-line elements (TLE)

Creation date: July 5, 2025, 5:45 p.m.

Reference frame: TEME

Reference center: EARTH

Epoch: July 5, 2025, 8:26 a.m. UTC

TLE line 0: 0 COSMOS 2135

TLE line 1: 1 21130U 91013A 25186.35163317 .00000060 00000-0 43130-4 0 9993

TLE line 2: 2 21130 82.8287 119.4588 0067186 93.1699 267.7149 13.78760392728228

Live tracking on map

Real-time ground track for satellite COSMOS 2135.

In-orbit conjunctions

A list of the most updated potential collisions computed for object COSMOS 2135.

Target Orbit TCA Probability of collision Miss distance Type
COSMOS 1275 DEB LEO 2024-11-30 20:21:23 0.000339206 149.0 (m) DEBRIS
FENGYUN 1C DEB SSO 2024-11-28 18:15:39 0.0002225281 388.0 (m) DEBRIS

Associated space launch

Navigation satellite providing location information for the Tsiklon-B navigation system

COSMOS 2135 was lifted into orbit during the mission ‘Kosmos-3M | Parus 71’, on board a Kosmos-3M space rocket.

The launch took place on Feb. 26, 1991, 4:53 a.m. from 133/3 (133L).

For more information about the launch, click the button.

Launch to space Kosmos-3M | Parus 71
Kosmos-3M | Parus 71

Agency: N/A

Status: Launch Successful

Launch date: Feb. 26, 1991, 4:53 a.m. UTC

Rocket: Kosmos-3M

Launch pad: 133/3 (133L)

Location: Plesetsk Cosmodrome, Russian Federation

...

Latest news about this satellite

There are no fresh news available about this satellite. Check back as we update our databases every day.


Newsletter sign-up

Weekly statistics, charts and insights to help you stay on top of the space industry.